cliquez pour ajouter le site Runraid à vos favoris  English version (google)  Retour à l'accueil Ecrire à l'auteur du site Runraid : Michel Jourdan



Les prochaines courses


Les derniers résultats

cliquez pour visualiser la page complète relatant la chronologie des éruptions du Piton de la Fournaise
éruptions Piton de la Fournaise


Ile de La Réunion

 Diagonale des Fous 

Ecrire au créateur du site : Michel Jourdan
Contact


2014-07-11 - KM Vertical (Ice Trail Tarentaise)

Pour consulter le palmarès d'un coureur, un clic sur son nom !

Vous avez des remarques, corrections, ... sur ces résultats , un clic sur --> pour me transmettre toute information concernant les classements


KM Vertical (Ice Trail Tarentaise) - 2014 : classement des 90 finishers
Place Nom Temps Cat. Club Sexe Clt/cat.
Place Nom Temps Cat. Club Sexe Clt/cat.
1 MOLETTO Marco 00:36:50 SEM La Sportiva M 2009
2 KUHAR Nejc 00:36:58 SEM La Sportiva M 2011
3 ROC Agusti 00:37:18 V1H Catalonia M 1 V1H 2001
4 MAGUET Nadir 00:37:27 ESH La Sportiva M 1 ESH 2002
5 SEVENNEC Alexis 00:37:46 SEM SCOTT Sports M 3 SEH 2013
6 GACHET Xavier 00:37:50 SEM - M 4 SEH 2072
7 LUDVIGSEN Thorbjorn 00:37:52 SEM Salomon M 5 SEH 2012
8 PHILIPOT Jean Francois 00:37:58 SEM - M 6 SEH 2089
9 BON MARDION William 00:38:43 SEM La Sportiva - Compresspor M 7 SEH 2015
10 TEIXIDO MARTI VENTOSA Ferran 00:39:39 V1H Andorra Dynafit M 2 V1H 2003
11 SERT Yoann 00:39:56 SEM - M 8 SEH 2108
12 FREIXA MARCELO Joan 00:40:13 SEM Catalonia M 9 SEH 2010
13 FAYOLLE Sebastien 00:40:31 SEM - M 10 SEH 2070
14 RULLAN ESTARELLES Pere 00:40:37 SEM - M 11 SEH 2097
15 ORGUE Laura 00:40:52 SEF Salomon F 1ere F 2031
16 DUNAND PALLAZ Aurelien 00:40:58 ESH ADIDAS F 2 ESH 2024
17 HIRSCH Idris 00:41:11 SEM - M 12 SEH 2054
18 CASAL MIR Oscar 00:41:34 SEM Raceland M 13 SEH 2004
19 MATHOU Paul 00:41:44 ESH - M 3 ESH 2084
20 BES Jordi 00:41:58 SEM - M 14 SEH 2056
21 AYMONOD Henri 00:42:02 ESH - M 4 ESH 2053
22 CONFORTOLA Antonella 00:42:30 SEF Corpo Forestale F 2eme F 2034
23 PEDRO BADT Juan 00:42:55 SEM - M 15 SEH 2007
24 RULLAN ESTARELLES Manuel 00:43:20 ESH - M 5 ESH 2096
25 LOISEL Etienne 00:43:28 SEM - M 16 SEH 2079
26 PERRIER William 00:43:33 ESH - M 6 ESH 2088
27 MORENO Navarro 00:43:46 SEM - M 17 SEH 2087
28 MOLLARET Axelle 00:44:45 ESF - F 1 ESF 2049
29 ROSSI Francesca 00:44:51 SEF La Sportiva F 3 SEF 2036
30 ALLERME Charly 00:44:57 ESH - M 7 ESH 2051
31 JIMENEZ Stephanie 00:45:00 V1F Salomon F 1 V1F 2033
32 MAGUET Roberto 00:45:04 V1H - M 3 V1H 2081
33 FORSBERG Emelie 00:45:33 SEF Salomon F 4 SEF 2042
34 MELKEVIK Kirsten 00:46:01 V1F - F 2 V1F 2048
35 MEILLEUR Vincent 00:46:07 V1H - M 4 V1H 2086
36 LE GALL Charles 00:46:15 ESH - M 8 ESH 2076
37 SJURSEN Therese 00:46:34 SEF - F 5 SEF 2046
38 RISSETTO Clement 00:46:36 ESH - M 9 ESH 2094
39 CASAL MIR Marc 00:46:52 SEM Raceland M 18 SEH 2006
40 BUSCHINO Romain 00:47:00 SEM technica M 19 SEH 2111
41 LUCAND Maxime 00:47:02 SEM - M 20 SEH 2080
42 BATTUZ Jonathan 00:47:20 ESH - M 10 ESH 2068
43 DEJEY Felix 00:47:31 V1H - M 5 V1H 2066
44 AUGRAS Claude 00:47:46 V2H - M 1 V2H 2052
45 CROCHON Thibaut 00:47:57 SEM - M 21 SEH 2063
46 CACHARD Jerome 00:48:05 SEM - M 22 SEH 2104
47 BRUNE Jean Philippe 00:48:13 V1H - M 6 V1H 2107
48 MARTIN Benoit 00:48:28 SEM - M 23 SEH 2083
49 GARCIA DE LOS SALMONES Azara 00:48:29 SEF - F 6 SEF 2032
50 XANDRI SUETS Alba 00:48:54 SEF Catalonia F 7 SEF 2047
51 SAEZ TOLEDANO Monica 00:49:16 SEF - F 8 SEF 2037
51 FORNI Erika 00:49:16 SEF La Sportiva F 8 SEF 2041
53 CHAMPANGE Cyril 00:49:33 V1H - M 7 V1H 2109
54 LEROY Raphael 00:49:53 ESH - M 11 ESH 2078
55 PLANAZ Julien 00:50:42 ESH - M 12 ESH 2090
56 FIECHTER Jennifer 00:51:06 ESF - F 2 ESF 2121
57 RUSSIER Fabien 00:51:12 SEM - M 24 SEH 2105
58 MAZERAND Mathieu 00:51:28 V1H - M 8 V1H 2085
59 RAMIREZ MARTINEZ Carlos 00:52:14 SEM - M 25 SEH 2101
60 JAGERCIKOVA Marianna 00:52:18 SEF - F 10 SEF 2123
61 RAVIER Serge 00:52:43 SEM - M 26 SEH 2093
62 HENRI ROUSSILLON Jean 00:52:52 V1H - M 9 V1H 2095
63 STAAL Alke 00:53:20 V1H - M 10 V1H 2098
64 DENCHE Pierre 00:53:22 V1H - M 11 V1H 2112
65 BRUSCO Anthony 00:53:40 SEM - M 27 SEH 2059
66 DECORNOY Narcisse 00:54:00 V1H - M 12 V1H 2064
67 LE PAPE Sebastien 00:54:07 SEM - M 28 SEH 2110
68 PUGIN Cedric 00:54:11 SEM - M 29 SEH 2092
69 JAYMOND Romain 00:55:08 SEM - M 30 SEH 2075
70 COUDER Stephanie 00:55:13 V1F - F 3 V1F 2130
71 MANCEAU Fabian 00:55:17 SEM - M 31 SEH 2082
72 TITOLO Claudia 00:56:45 V1F - F 4 V1F 2128
73 DEGUEURSE Thomas 00:56:56 SEM - M 32 SEH 2065
74 ERNST Christophe 00:57:30 V1H - M 13 V1H 2106
75 MEDEROS RODRIGUEZ Maria 00:57:50 SEF - F 11 SEF 2038
76 RAMIREZ MARTINEZ Javier 00:58:17 SEM - M 33 SEH 2102
77 BOST Nicolas 00:58:37 SEM - M 34 SEH 2103
78 LAPORTERIE Tonton 00:58:42 V3H - M 1 V3H 2069
79 LECLAINCHE Julien 00:59:31 SEM - M 35 SEH 2077
80 FABRE GOIN Boris 00:59:45 V1H - M 14 V1H 2100
80 MARCONATO Giuseppina 00:59:45 V1F - F 5 V1F 2124
82 CHARRON Grigori 01:00:12 SEM - M 36 SEH 2062
83 POMMARD Michel 01:00:33 V2H - M 2 V2H 2091
84 DUBOUCHET Patrick 01:00:50 V3H - M 2 V3H 2067
85 CELETTE Henry 01:02:13 V1H - M 15 V1H 2060
86 BERTHIER Pierre 01:02:32 SEM - M 37 SEH 2055
87 GEIGER Steve 01:07:12 V1H - M 16 V1H 2073
88 WARBURTON Timeka 01:07:32 SEF - F 12 SEF 2129
89 BILAS Nicolas 01:15:33 SEM - M 38 SEH 2057
90 BOUVET Philippe 01:32:08 V2H - M 3 V2H 2058


ReferencementCe site est listé dans la catégorie Sport : Sports extrêmes Dictionnaire
| Accueil | La Réunion  Vue du ciel | Météo | Cyclones | Volcan | Cirques de Mafate , Cilaos , Salazie | Photos Randonnées | Randonnées Réunion: Randos Espiègle , Courses montagne | Diagonale des Fous |  Marathon des Sables | Voyages Les stats du site | Fonds écran | Plan du site | Blog de runraid | Galerie photos Sport Réunion |